| time (UTC) | temp F | wind direction | speed MPH | gust MPH | rain 1hr in | rain 24hr in | rain mn in | humidity % | barometer mb |
| 20260510030709 | 53 | 131 | 2.0 | 2.0 | 0.00 | 0.00 | 0.00 | 98 | 1008.1 |
| 20260510030208 | 54 | 131 | 1.0 | 1.0 | 0.00 | 0.00 | 0.00 | 98 | 1008.2 |
| 20260510025705 | 54 | 134 | 1.0 | 1.0 | 0.00 | 0.00 | 0.00 | 98 | 1008.1 |
| 20260510025202 | 54 | 133 | 2.0 | 2.0 | 0.00 | 0.00 | 0.00 | 98 | 1008.1 |
| 20260510024659 | 54 | 131 | 2.0 | 2.0 | 0.00 | 0.00 | 0.00 | 98 | 1007.8 |
| 20260510024155 | 54 | 136 | 2.0 | 2.0 | 0.00 | 0.00 | 0.00 | 98 | 1007.6 |
| 20260510023651 | 54 | 137 | 2.0 | 2.0 | 0.00 | 0.00 | 0.00 | 98 | 1007.9 |
| 20260510023148 | 55 | 128 | 3.0 | 3.0 | 0.00 | 0.00 | 0.00 | 97 | 1007.7 |
| 20260510022643 | 55 | 138 | 2.0 | 3.0 | 0.00 | 0.00 | 0.00 | 97 | 1007.6 |
| 20260510022139 | 55 | 132 | 1.0 | 2.0 | 0.00 | 0.00 | 0.00 | 96 | 1007.5 |
| 20260510021634 | 55 | 126 | 0.0 | 0.0 | 0.00 | 0.00 | 0.00 | 96 | 1007.6 |
| 20260510021131 | 55 | 132 | 0.0 | 0.0 | 0.00 | 0.00 | 0.00 | 96 | 1007.3 |
| 20260510020626 | 55 | 134 | 2.0 | 2.0 | 0.00 | 0.00 | 0.00 | 96 | 1007.4 |
| 20260510020121 | 55 | 134 | 0.0 | 0.0 | 0.00 | 0.00 | 0.00 | 95 | 1007.3 |
| 20260510015618 | 56 | 132 | 0.0 | 0.0 | 0.00 | 0.00 | 0.00 | 95 | 1006.8 |
| 20260510015114 | 56 | 133 | 0.0 | 0.0 | 0.00 | 0.00 | 0.00 | 94 | 1007.2 |
| 20260510014610 | 56 | 129 | 0.0 | 0.0 | 0.00 | 0.00 | 0.00 | 94 | 1007.1 |
| 20260510014108 | 56 | 130 | 0.0 | 0.0 | 0.00 | 0.00 | 0.00 | 93 | 1006.9 |
| 20260510013602 | 57 | 131 | 0.0 | 0.0 | 0.00 | 0.00 | 0.00 | 92 | 1006.8 |
| 20260510013058 | 57 | 130 | 1.0 | 1.0 | 0.00 | 0.00 | 0.00 | 92 | 1006.7 |
| 20260510012557 | 57 | 132 | 0.0 | 0.0 | 0.00 | 0.00 | 0.00 | 91 | 1006.8 |
| 20260510012054 | 58 | 131 | 0.0 | 0.0 | 0.00 | 0.00 | 0.00 | 91 | 1006.5 |
| 20260510011553 | 58 | 130 | 0.0 | 1.0 | 0.00 | 0.00 | 0.00 | 90 | 1006.4 |
| 20260510011050 | 58 | 133 | 1.0 | 1.0 | 0.00 | 0.00 | 0.00 | 91 | 1006.5 |
| 20260510010546 | 58 | 129 | 1.0 | 1.0 | 0.00 | 0.00 | 0.00 | 89 | 1006.3 |
| 20260510010044 | 59 | 130 | 1.0 | 1.0 | 0.00 | 0.00 | 0.00 | 88 | 1006.5 |
| 20260510005539 | 59 | 132 | 1.0 | 1.0 | 0.00 | 0.00 | 0.00 | 87 | 1006.4 |
| 20260510005037 | 59 | 131 | 1.0 | 1.0 | 0.00 | 0.00 | 0.00 | 87 | 1006.4 |
| 20260510004534 | 60 | 127 | 0.0 | 0.0 | 0.00 | 0.00 | 0.00 | 85 | 1006.3 |
| 20260510004032 | 61 | 128 | 1.0 | 1.0 | 0.00 | 0.00 | 0.00 | 84 | 1006.3 |
| 20260510003529 | 61 | 127 | 1.0 | 1.0 | 0.00 | 0.00 | 0.00 | 83 | 1006.1 |
| 20260510003024 | 62 | 129 | 1.0 | 2.0 | 0.00 | 0.00 | 0.00 | 81 | 1006.1 |
| 20260510002520 | 63 | 132 | 1.0 | 1.0 | 0.00 | 0.00 | 0.00 | 79 | 1005.9 |
| 20260510002017 | 64 | 133 | 1.0 | 1.0 | 0.00 | 0.00 | 0.00 | 77 | 1005.9 |
| 20260510001514 | 64 | 118 | 1.0 | 2.0 | 0.00 | 0.00 | 0.00 | 76 | 1006.0 |
| 20260510001012 | 65 | 132 | 0.0 | 0.0 | 0.00 | 0.00 | 0.00 | 75 | 1006.2 |
| 20260510000512 | 65 | 128 | 1.0 | 1.0 | 0.00 | 0.00 | 0.00 | 74 | 1005.9 |
| 20260510000010 | 66 | 133 | 1.0 | 1.0 | 0.00 | 0.00 | 0.00 | 72 | 1006.0 |
| 20260509235507 | 67 | 131 | 0.0 | 0.0 | 0.00 | 0.00 | 0.00 | 71 | 1005.7 |
| 20260509235003 | 67 | 131 | 1.0 | 1.0 | 0.00 | 0.00 | 0.00 | 70 | 1005.7 |
| 20260509234459 | 67 | 130 | 3.0 | 5.0 | 0.00 | 0.00 | 0.00 | 69 | 1005.9 |
| 20260509233957 | 68 | 171 | 3.0 | 3.0 | 0.00 | 0.00 | 0.00 | 68 | 1005.7 |
| 20260509233454 | 68 | 125 | 2.0 | 3.0 | 0.00 | 0.00 | 0.00 | 68 | 1005.6 |
| 20260509232950 | 68 | 149 | 4.0 | 5.0 | 0.00 | 0.00 | 0.00 | 67 | 1005.7 |
| 20260509232449 | 68 | 135 | 3.0 | 3.0 | 0.00 | 0.00 | 0.00 | 67 | 1005.8 |
| 20260509231944 | 69 | 149 | 5.0 | 6.0 | 0.00 | 0.00 | 0.00 | 66 | 1005.5 |
| 20260509231441 | 69 | 120 | 3.0 | 5.0 | 0.00 | 0.00 | 0.00 | 66 | 1005.7 |
| 20260509230939 | 69 | 121 | 5.0 | 6.0 | 0.00 | 0.00 | 0.00 | 65 | 1005.6 |
| 20260509230435 | 69 | 145 | 5.0 | 7.0 | 0.00 | 0.00 | 0.00 | 65 | 1005.6 |
| 20260509225931 | 70 | 143 | 7.0 | 9.0 | 0.00 | 0.00 | 0.00 | 64 | 1005.5 |
| 20260509225428 | 70 | 180 | 3.0 | 3.0 | 0.00 | 0.00 | 0.00 | 64 | 1005.6 |
| 20260509224924 | 70 | 111 | 3.0 | 5.0 | 0.00 | 0.00 | 0.00 | 62 | 1005.4 |
| 20260509224420 | 70 | 111 | 8.0 | 9.0 | 0.00 | 0.00 | 0.00 | 61 | 1005.6 |
| 20260509223917 | 71 | 161 | 7.0 | 8.0 | 0.00 | 0.00 | 0.00 | 61 | 1005.6 |
| 20260509223414 | 71 | 124 | 4.0 | 7.0 | 0.00 | 0.00 | 0.00 | 61 | 1005.6 |
| 20260509222911 | 71 | 116 | 4.0 | 5.0 | 0.00 | 0.00 | 0.00 | 60 | 1005.4 |
| 20260509222406 | 71 | 116 | 2.0 | 2.0 | 0.00 | 0.00 | 0.00 | 62 | 1005.5 |
| 20260509221902 | 71 | 128 | 3.0 | 5.0 | 0.00 | 0.00 | 0.00 | 62 | 1005.7 |
| 20260509221359 | 71 | 124 | 3.0 | 3.0 | 0.00 | 0.00 | 0.00 | 63 | 1005.5 |
| 20260509220855 | 70 | 153 | 2.0 | 2.0 | 0.00 | 0.00 | 0.00 | 63 | 1005.3 |
| 20260509220351 | 71 | 131 | 6.0 | 8.0 | 0.00 | 0.00 | 0.00 | 62 | 1005.4 |
| 20260509215847 | 71 | 141 | 4.0 | 5.0 | 0.00 | 0.00 | 0.00 | 62 | 1005.3 |
| 20260509215343 | 71 | 140 | 2.0 | 5.0 | 0.00 | 0.00 | 0.00 | 62 | 1005.3 |
| 20260509214840 | 71 | 141 | 5.0 | 6.0 | 0.00 | 0.00 | 0.00 | 63 | 1005.5 |
| 20260509214338 | 71 | 135 | 3.0 | 3.0 | 0.00 | 0.00 | 0.00 | 64 | 1005.5 |
| 20260509213835 | 70 | 164 | 3.0 | 3.0 | 0.00 | 0.00 | 0.00 | 65 | 1005.6 |
| 20260509213330 | 70 | 134 | 3.0 | 5.0 | 0.00 | 0.00 | 0.00 | 64 | 1005.7 |
| 20260509212828 | 70 | 134 | 7.0 | 9.0 | 0.00 | 0.00 | 0.00 | 62 | 1005.6 |
| 20260509212326 | 71 | 132 | 6.0 | 8.0 | 0.00 | 0.00 | 0.00 | 62 | 1005.6 |
| 20260509211821 | 72 | 138 | 7.0 | 8.0 | 0.00 | 0.00 | 0.00 | 61 | 1005.7 |
| 20260509211317 | 71 | 146 | 7.0 | 9.0 | 0.00 | 0.00 | 0.00 | 62 | 1005.8 |
| 20260509210814 | 71 | 127 | 4.0 | 5.0 | 0.00 | 0.00 | 0.00 | 63 | 1005.8 |
| 20260509210312 | 71 | 123 | 6.0 | 8.0 | 0.00 | 0.00 | 0.00 | 61 | 1005.7 |
| 20260509205811 | 71 | 127 | 5.0 | 6.0 | 0.00 | 0.00 | 0.00 | 63 | 1005.5 |
| 20260509205307 | 70 | 119 | 4.0 | 5.0 | 0.00 | 0.00 | 0.00 | 65 | 1005.5 |
| 20260509204802 | 70 | 128 | 3.0 | 5.0 | 0.00 | 0.00 | 0.00 | 65 | 1005.7 |
| 20260509204258 | 69 | 169 | 5.0 | 7.0 | 0.00 | 0.00 | 0.00 | 67 | 1005.7 |
| 20260509203755 | 69 | 107 | 3.0 | 3.0 | 0.00 | 0.00 | 0.00 | 67 | 1005.9 |
| 20260509203252 | 69 | 138 | 3.0 | 3.0 | 0.00 | 0.00 | 0.00 | 66 | 1005.7 |
| 20260509202748 | 71 | 132 | 2.0 | 2.0 | 0.00 | 0.00 | 0.00 | 63 | 1005.7 |
| 20260509202244 | 71 | 121 | 0.0 | 1.0 | 0.00 | 0.00 | 0.00 | 63 | 1005.6 |
| 20260509201739 | 70 | 124 | 5.0 | 7.0 | 0.00 | 0.00 | 0.00 | 64 | 1005.5 |
| 20260509201236 | 70 | 110 | 4.0 | 5.0 | 0.00 | 0.00 | 0.00 | 65 | 1005.8 |
| 20260509200732 | 71 | 127 | 3.0 | 3.0 | 0.00 | 0.00 | 0.00 | 62 | 1005.6 |
| 20260509200227 | 71 | 135 | 0.0 | 0.0 | 0.00 | 0.00 | 0.00 | 64 | 1005.7 |
| 20260509195723 | 70 | 135 | 1.0 | 1.0 | 0.00 | 0.00 | 0.00 | 66 | 1005.8 |
| 20260509195218 | 70 | 103 | 3.0 | 3.0 | 0.00 | 0.00 | 0.00 | 66 | 1005.8 |
| 20260509194713 | 70 | 135 | 3.0 | 3.0 | 0.00 | 0.00 | 0.00 | 66 | 1005.8 |
| 20260509194210 | 69 | 118 | 3.0 | 5.0 | 0.00 | 0.00 | 0.00 | 66 | 1005.8 |
| 20260509193707 | 70 | 119 | 1.0 | 2.0 | 0.00 | 0.00 | 0.00 | 65 | 1005.9 |
| 20260509193206 | 70 | 133 | 3.0 | 3.0 | 0.00 | 0.00 | 0.00 | 63 | 1005.8 |
| 20260509192703 | 70 | 142 | 1.0 | 2.0 | 0.00 | 0.00 | 0.00 | 65 | 1006.1 |
| 20260509192158 | 70 | 169 | 3.0 | 3.0 | 0.00 | 0.00 | 0.00 | 64 | 1005.9 |
| 20260509191654 | 70 | 151 | 1.0 | 1.0 | 0.00 | 0.00 | 0.00 | 64 | 1005.8 |
| 20260509191150 | 70 | 140 | 3.0 | 5.0 | 0.00 | 0.00 | 0.00 | 66 | 1006.0 |
| 20260509190646 | 70 | 140 | 0.0 | 1.0 | 0.00 | 0.00 | 0.00 | 65 | 1006.2 |
| 20260509190144 | 69 | 102 | 10.0 | 11.0 | 0.00 | 0.00 | 0.00 | 63 | 1005.7 |
| 20260509185642 | 70 | 146 | 1.0 | 2.0 | 0.00 | 0.00 | 0.00 | 67 | 1005.8 |
| 20260509185137 | 70 | 34 | 4.0 | 6.0 | 0.00 | 0.00 | 0.00 | 68 | 1005.8 |
| 20260509184635 | 69 | 132 | 8.0 | 10.0 | 0.00 | 0.00 | 0.00 | 65 | 1006.1 |
| 20260509184132 | 69 | 117 | 9.0 | 10.0 | 0.00 | 0.00 | 0.00 | 67 | 1006.2 |
| 20260509183628 | 69 | 131 | 4.0 | 5.0 | 0.00 | 0.00 | 0.00 | 66 | 1005.9 |
| 20260509183123 | 69 | 120 | 4.0 | 6.0 | 0.00 | 0.00 | 0.00 | 67 | 1005.8 |
| 20260509182620 | 69 | 108 | 6.0 | 7.0 | 0.00 | 0.00 | 0.00 | 68 | 1005.9 |
| 20260509182117 | 68 | 139 | 3.0 | 3.0 | 0.00 | 0.00 | 0.00 | 71 | 1005.9 |
| 20260509181615 | 69 | 180 | 5.0 | 6.0 | 0.00 | 0.00 | 0.00 | 69 | 1005.8 |
| 20260509181112 | 68 | 182 | 5.0 | 7.0 | 0.00 | 0.00 | 0.00 | 70 | 1005.9 |
| 20260509180608 | 68 | 100 | 5.0 | 6.0 | 0.00 | 0.00 | 0.00 | 69 | 1005.7 |
| 20260509180105 | 67 | 173 | 1.0 | 2.0 | 0.00 | 0.00 | 0.00 | 75 | 1005.7 |
| 20260509175601 | 66 | 111 | 1.0 | 1.0 | 0.00 | 0.00 | 0.00 | 72 | 1005.9 |
| 20260509175058 | 66 | 131 | 1.0 | 3.0 | 0.00 | 0.00 | 0.00 | 73 | 1006.0 |
| 20260509174554 | 66 | 156 | 1.0 | 2.0 | 0.00 | 0.00 | 0.00 | 74 | 1006.2 |
| 20260509174049 | 65 | 125 | 0.0 | 1.0 | 0.00 | 0.00 | 0.00 | 76 | 1006.2 |
| 20260509173544 | 64 | 112 | 3.0 | 3.0 | 0.00 | 0.00 | 0.00 | 77 | 1006.3 |
| 20260509173041 | 63 | 85 | 3.0 | 3.0 | 0.00 | 0.00 | 0.00 | 77 | 1006.4 |
| 20260509172538 | 63 | 290 | 4.0 | 6.0 | 0.00 | 0.00 | 0.00 | 78 | 1006.6 |
| 20260509172033 | 63 | 169 | 3.0 | 3.0 | 0.00 | 0.00 | 0.00 | 79 | 1006.4 |
| 20260509171529 | 62 | 136 | 3.0 | 5.0 | 0.00 | 0.00 | 0.00 | 80 | 1006.6 |
| 20260509171026 | 62 | 118 | 2.0 | 2.0 | 0.00 | 0.00 | 0.00 | 81 | 1006.7 |
| 20260509170522 | 61 | 115 | 2.0 | 2.0 | 0.00 | 0.00 | 0.00 | 78 | 1006.6 |
| 20260509170018 | 61 | 125 | 1.0 | 2.0 | 0.00 | 0.00 | 0.00 | 77 | 1006.7 |
| 20260509165516 | 62 | 154 | 2.0 | 2.0 | 0.00 | 0.00 | 0.00 | 75 | 1006.6 |
| 20260509165013 | 62 | 143 | 1.0 | 1.0 | 0.00 | 0.00 | 0.00 | 74 | 1006.7 |
| 20260509164509 | 62 | 128 | 1.0 | 1.0 | 0.00 | 0.00 | 0.00 | 73 | 1006.6 |
| 20260509164004 | 62 | 124 | 2.0 | 3.0 | 0.00 | 0.00 | 0.00 | 72 | 1006.6 |
| 20260509163502 | 62 | 118 | 2.0 | 2.0 | 0.00 | 0.00 | 0.00 | 73 | 1006.8 |
| 20260509163001 | 62 | 143 | 3.0 | 3.0 | 0.00 | 0.00 | 0.00 | 72 | 1006.6 |
| 20260509162500 | 63 | 145 | 3.0 | 3.0 | 0.00 | 0.00 | 0.00 | 73 | 1006.6 |
| 20260509161955 | 63 | 189 | 2.0 | 3.0 | 0.00 | 0.00 | 0.00 | 72 | 1006.6 |
| 20260509161452 | 63 | 116 | 3.0 | 3.0 | 0.00 | 0.00 | 0.00 | 72 | 1006.6 |
| 20260509160947 | 63 | 131 | 1.0 | 1.0 | 0.00 | 0.00 | 0.00 | 72 | 1006.5 |
| 20260509160444 | 63 | 111 | 2.0 | 3.0 | 0.00 | 0.00 | 0.00 | 71 | 1006.4 |
| 20260509155938 | 64 | 137 | 1.0 | 1.0 | 0.00 | 0.00 | 0.00 | 70 | 1006.6 |
| 20260509155436 | 64 | 125 | 5.0 | 6.0 | 0.00 | 0.00 | 0.00 | 68 | 1006.5 |
| 20260509154932 | 64 | 141 | 1.0 | 5.0 | 0.00 | 0.00 | 0.00 | 72 | 1006.3 |
| 20260509154428 | 64 | 123 | 3.0 | 5.0 | 0.00 | 0.00 | 0.00 | 69 | 1006.2 |
| 20260509153926 | 64 | 99 | 3.0 | 5.0 | 0.00 | 0.00 | 0.00 | 69 | 1006.5 |
| 20260509153422 | 64 | 130 | 4.0 | 5.0 | 0.00 | 0.00 | 0.00 | 69 | 1006.2 |
| 20260509152920 | 64 | 148 | 2.0 | 2.0 | 0.00 | 0.00 | 0.00 | 69 | 1006.3 |
| 20260509152415 | 63 | 145 | 3.0 | 3.0 | 0.00 | 0.00 | 0.00 | 71 | 1006.3 |
| 20260509151912 | 63 | 118 | 3.0 | 3.0 | 0.00 | 0.00 | 0.00 | 70 | 1006.0 |
| 20260509151408 | 62 | 134 | 4.0 | 5.0 | 0.00 | 0.00 | 0.00 | 69 | 1006.2 |
| 20260509150907 | 62 | 132 | 2.0 | 2.0 | 0.00 | 0.00 | 0.00 | 70 | 1006.3 |
| 20260509150404 | 62 | 126 | 2.0 | 2.0 | 0.00 | 0.00 | 0.00 | 70 | 1006.3 |
| 20260509145902 | 62 | 144 | 3.0 | 3.0 | 0.00 | 0.00 | 0.00 | 71 | 1006.1 |
| 20260509145401 | 62 | 158 | 3.0 | 3.0 | 0.00 | 0.00 | 0.00 | 70 | 1006.0 |
| 20260509144858 | 61 | 136 | 2.0 | 3.0 | 0.00 | 0.00 | 0.00 | 70 | 1006.2 |
| 20260509144355 | 61 | 118 | 3.0 | 3.0 | 0.00 | 0.00 | 0.00 | 70 | 1006.3 |
| 20260509143852 | 61 | 137 | 1.0 | 2.0 | 0.00 | 0.00 | 0.00 | 73 | 1006.3 |
| 20260509143349 | 61 | 105 | 3.0 | 3.0 | 0.00 | 0.00 | 0.00 | 71 | 1006.2 |
| 20260509142845 | 61 | 124 | 1.0 | 1.0 | 0.00 | 0.00 | 0.00 | 73 | 1006.0 |
| 20260509142342 | 60 | 137 | 1.0 | 1.0 | 0.00 | 0.00 | 0.00 | 74 | 1006.1 |
| 20260509141837 | 60 | 140 | 0.0 | 0.0 | 0.00 | 0.00 | 0.00 | 77 | 1006.2 |
| 20260509141335 | 60 | 126 | 0.0 | 0.0 | 0.00 | 0.00 | 0.00 | 75 | 1006.4 |
| 20260509140831 | 60 | 132 | 0.0 | 0.0 | 0.00 | 0.00 | 0.00 | 76 | 1006.4 |
| 20260509140328 | 60 | 132 | 0.0 | 0.0 | 0.00 | 0.00 | 0.00 | 76 | 1006.2 |
| 20260509135826 | 60 | 121 | 1.0 | 2.0 | 0.00 | 0.00 | 0.00 | 75 | 1006.0 |
| 20260509135323 | 60 | 125 | 0.0 | 0.0 | 0.00 | 0.00 | 0.00 | 74 | 1006.1 |
| 20260509134821 | 60 | 125 | 1.0 | 1.0 | 0.00 | 0.00 | 0.00 | 71 | 1006.3 |
| 20260509134318 | 60 | 120 | 1.0 | 1.0 | 0.00 | 0.00 | 0.00 | 70 | 1006.2 |
| 20260509133815 | 59 | 114 | 2.0 | 2.0 | 0.00 | 0.00 | 0.00 | 71 | 1006.3 |
| 20260509133311 | 59 | 142 | 2.0 | 2.0 | 0.00 | 0.00 | 0.00 | 71 | 1006.4 |
| 20260509132810 | 59 | 140 | 0.0 | 0.0 | 0.00 | 0.00 | 0.00 | 77 | 1006.4 |
| 20260509132308 | 59 | 128 | 0.0 | 0.0 | 0.00 | 0.00 | 0.00 | 75 | 1006.1 |
| 20260509131804 | 59 | 129 | 1.0 | 1.0 | 0.00 | 0.00 | 0.00 | 76 | 1006.1 |
| 20260509131301 | 59 | 131 | 1.0 | 1.0 | 0.00 | 0.00 | 0.00 | 74 | 1006.1 |
| 20260509130757 | 59 | 132 | 0.0 | 1.0 | 0.00 | 0.00 | 0.00 | 77 | 1006.0 |
| 20260509130253 | 59 | 131 | 1.0 | 1.0 | 0.00 | 0.00 | 0.00 | 77 | 1006.0 |
| 20260509125750 | 59 | 130 | 0.0 | 0.0 | 0.00 | 0.00 | 0.00 | 85 | 1005.7 |
| 20260509125247 | 58 | 130 | 0.0 | 1.0 | 0.00 | 0.00 | 0.00 | 82 | 1006.0 |
| 20260509124743 | 57 | 121 | 2.0 | 2.0 | 0.00 | 0.00 | 0.00 | 83 | 1005.7 |
| 20260509124240 | 57 | 125 | 0.0 | 0.0 | 0.00 | 0.00 | 0.00 | 89 | 1005.7 |
| 20260509123738 | 56 | 132 | 0.0 | 0.0 | 0.00 | 0.00 | 0.00 | 89 | 1005.8 |
| 20260509123235 | 55 | 131 | 0.0 | 0.0 | 0.00 | 0.00 | 0.00 | 90 | 1005.9 |
| 20260509122731 | 55 | 128 | 0.0 | 1.0 | 0.00 | 0.00 | 0.00 | 90 | 1006.2 |
| 20260509122228 | 54 | 137 | 2.0 | 2.0 | 0.00 | 0.00 | 0.00 | 91 | 1006.2 |
| 20260509121725 | 54 | 132 | 0.0 | 0.0 | 0.00 | 0.00 | 0.00 | 91 | 1006.4 |
| 20260509121222 | 53 | 122 | 1.0 | 2.0 | 0.00 | 0.00 | 0.00 | 91 | 1006.5 |
| 20260509120720 | 53 | 131 | 0.0 | 1.0 | 0.00 | 0.00 | 0.00 | 92 | 1006.3 |
| 20260509120218 | 53 | 135 | 1.0 | 1.0 | 0.00 | 0.00 | 0.00 | 92 | 1006.3 |
| 20260509115715 | 53 | 131 | 0.0 | 0.0 | 0.00 | 0.00 | 0.00 | 93 | 1006.1 |
| 20260509115212 | 53 | 128 | 0.0 | 0.0 | 0.00 | 0.00 | 0.00 | 93 | 1006.3 |
| 20260509114711 | 52 | 128 | 0.0 | 0.0 | 0.00 | 0.00 | 0.00 | 94 | 1006.3 |
| 20260509114209 | 52 | 132 | 0.0 | 0.0 | 0.00 | 0.00 | 0.00 | 94 | 1006.0 |
| 20260509113707 | 52 | 135 | 0.0 | 0.0 | 0.00 | 0.00 | 0.00 | 94 | 1005.9 |
| 20260509113204 | 51 | 148 | 1.0 | 2.0 | 0.00 | 0.00 | 0.00 | 94 | 1006.1 |
| 20260509112701 | 51 | 133 | 2.0 | 2.0 | 0.00 | 0.00 | 0.00 | 94 | 1006.1 |
| 20260509112158 | 51 | 134 | 0.0 | 0.0 | 0.00 | 0.00 | 0.00 | 94 | 1006.0 |
| 20260509111655 | 51 | 130 | 0.0 | 0.0 | 0.00 | 0.00 | 0.00 | 94 | 1005.9 |
| 20260509111151 | 51 | 129 | 0.0 | 0.0 | 0.00 | 0.00 | 0.00 | 94 | 1005.9 |
| 20260509110649 | 51 | 129 | 0.0 | 0.0 | 0.00 | 0.00 | 0.00 | 94 | 1005.9 |
| 20260509110146 | 50 | 132 | 0.0 | 0.0 | 0.00 | 0.00 | 0.00 | 94 | 1005.9 |
| 20260509105644 | 50 | 133 | 0.0 | 0.0 | 0.00 | 0.00 | 0.00 | 94 | 1005.7 |
| 20260509105141 | 50 | 128 | 0.0 | 0.0 | 0.00 | 0.00 | 0.00 | 94 | 1006.0 |
| 20260509104638 | 50 | 126 | 0.0 | 0.0 | 0.00 | 0.00 | 0.00 | 94 | 1005.8 |
| 20260509104135 | 50 | 133 | 0.0 | 0.0 | 0.00 | 0.00 | 0.00 | 94 | 1005.9 |
| 20260509103633 | 50 | 131 | 0.0 | 0.0 | 0.00 | 0.00 | 0.00 | 93 | 1005.8 |
| 20260509103130 | 50 | 130 | 0.0 | 0.0 | 0.00 | 0.00 | 0.00 | 93 | 1005.5 |
| 20260509102628 | 50 | 130 | 0.0 | 0.0 | 0.00 | 0.00 | 0.00 | 94 | 1005.4 |
| 20260509102125 | 50 | 130 | 0.0 | 0.0 | 0.00 | 0.00 | 0.00 | 94 | 1005.6 |
| 20260509101621 | 50 | 131 | 0.0 | 0.0 | 0.00 | 0.00 | 0.00 | 94 | 1005.6 |
| 20260509101118 | 51 | 131 | 0.0 | 0.0 | 0.00 | 0.00 | 0.00 | 93 | 1005.5 |
| 20260509100615 | 51 | 130 | 0.0 | 0.0 | 0.00 | 0.00 | 0.00 | 93 | 1005.6 |
| 20260509100112 | 51 | 126 | 0.0 | 0.0 | 0.00 | 0.00 | 0.00 | 93 | 1005.6 |
| 20260509095608 | 51 | 136 | 0.0 | 0.0 | 0.00 | 0.00 | 0.00 | 93 | 1005.7 |
| 20260509095106 | 51 | 134 | 0.0 | 0.0 | 0.00 | 0.00 | 0.00 | 93 | 1005.4 |
| 20260509094602 | 51 | 134 | 0.0 | 0.0 | 0.00 | 0.00 | 0.00 | 92 | 1005.7 |
| 20260509094059 | 51 | 134 | 0.0 | 0.0 | 0.00 | 0.00 | 0.00 | 93 | 1005.8 |
| 20260509093558 | 51 | 134 | 0.0 | 0.0 | 0.00 | 0.00 | 0.00 | 93 | 1005.8 |
| 20260509093055 | 51 | 133 | 0.0 | 0.0 | 0.00 | 0.00 | 0.00 | 93 | 1005.9 |
| 20260509092552 | 51 | 134 | 0.0 | 0.0 | 0.00 | 0.00 | 0.00 | 93 | 1005.7 |
| 20260509092051 | 51 | 134 | 0.0 | 0.0 | 0.00 | 0.00 | 0.00 | 92 | 1005.7 |
| 20260509091548 | 51 | 134 | 0.0 | 0.0 | 0.00 | 0.00 | 0.00 | 92 | 1006.0 |
| 20260509091044 | 51 | 134 | 0.0 | 0.0 | 0.00 | 0.00 | 0.00 | 92 | 1005.9 |
| 20260509090542 | 51 | 134 | 0.0 | 0.0 | 0.00 | 0.00 | 0.00 | 92 | 1005.9 |
| 20260509090040 | 51 | 134 | 0.0 | 0.0 | 0.00 | 0.00 | 0.00 | 92 | 1006.1 |
| 20260509085537 | 51 | 134 | 0.0 | 0.0 | 0.00 | 0.00 | 0.00 | 92 | 1006.0 |
| 20260509085032 | 51 | 134 | 0.0 | 0.0 | 0.00 | 0.00 | 0.00 | 91 | 1005.9 |
| 20260509084530 | 51 | 134 | 0.0 | 0.0 | 0.00 | 0.00 | 0.00 | 92 | 1005.7 |
| 20260509084027 | 51 | 134 | 0.0 | 0.0 | 0.00 | 0.00 | 0.00 | 92 | 1005.8 |
| 20260509083525 | 51 | 134 | 0.0 | 0.0 | 0.00 | 0.00 | 0.00 | 92 | 1005.7 |
| 20260509083021 | 51 | 134 | 0.0 | 0.0 | 0.00 | 0.00 | 0.00 | 91 | 1005.8 |
| 20260509082518 | 51 | 134 | 0.0 | 0.0 | 0.00 | 0.00 | 0.00 | 91 | 1006.1 |
| 20260509082015 | 51 | 134 | 0.0 | 0.0 | 0.00 | 0.00 | 0.00 | 91 | 1006.0 |
| 20260509081513 | 51 | 134 | 0.0 | 0.0 | 0.00 | 0.00 | 0.00 | 91 | 1006.0 |
| 20260509081009 | 51 | 134 | 0.0 | 0.0 | 0.00 | 0.00 | 0.00 | 91 | 1006.0 |
| 20260509080507 | 51 | 134 | 0.0 | 0.0 | 0.00 | 0.00 | 0.00 | 91 | 1006.1 |
| 20260509080005 | 51 | 134 | 0.0 | 0.0 | 0.00 | 0.00 | 0.00 | 91 | 1006.0 |
| 20260509075502 | 51 | 134 | 0.0 | 0.0 | 0.00 | 0.00 | 0.00 | 90 | 1006.1 |
| 20260509075000 | 51 | 134 | 0.0 | 0.0 | 0.00 | 0.00 | 0.00 | 91 | 1006.2 |
| 20260509074457 | 51 | 134 | 0.0 | 0.0 | 0.00 | 0.00 | 0.00 | 91 | 1006.2 |
| 20260509073953 | 51 | 134 | 0.0 | 0.0 | 0.00 | 0.00 | 0.00 | 91 | 1006.2 |
| 20260509073450 | 51 | 134 | 0.0 | 0.0 | 0.00 | 0.00 | 0.00 | 90 | 1006.3 |
| 20260509072946 | 51 | 134 | 0.0 | 0.0 | 0.00 | 0.00 | 0.00 | 90 | 1006.1 |
| 20260509072443 | 51 | 134 | 0.0 | 0.0 | 0.00 | 0.00 | 0.00 | 90 | 1006.2 |
| 20260509071940 | 51 | 134 | 0.0 | 0.0 | 0.00 | 0.00 | 0.00 | 90 | 1006.2 |
| 20260509071436 | 51 | 134 | 0.0 | 0.0 | 0.00 | 0.00 | 0.00 | 90 | 1006.2 |
| 20260509070934 | 51 | 134 | 0.0 | 0.0 | 0.00 | 0.00 | 0.00 | 90 | 1006.2 |
| 20260509070431 | 51 | 134 | 0.0 | 0.0 | 0.00 | 0.00 | 0.00 | 90 | 1006.3 |
| 20260509065926 | 51 | 134 | 0.0 | 0.0 | 0.00 | 0.00 | 0.00 | 89 | 1006.4 |
| 20260509065422 | 51 | 134 | 0.0 | 0.0 | 0.00 | 0.00 | 0.00 | 89 | 1006.4 |
| 20260509064919 | 51 | 134 | 0.0 | 0.0 | 0.00 | 0.00 | 0.00 | 90 | 1006.5 |
| 20260509064417 | 51 | 134 | 0.0 | 0.0 | 0.00 | 0.00 | 0.00 | 90 | 1006.4 |
| 20260509063914 | 51 | 134 | 0.0 | 0.0 | 0.00 | 0.00 | 0.00 | 90 | 1006.1 |
| 20260509063410 | 50 | 134 | 0.0 | 0.0 | 0.00 | 0.00 | 0.00 | 89 | 1006.2 |
| 20260509062907 | 50 | 134 | 0.0 | 0.0 | 0.00 | 0.00 | 0.00 | 89 | 1006.3 |
| 20260509062404 | 50 | 134 | 0.0 | 0.0 | 0.00 | 0.00 | 0.00 | 89 | 1006.3 |
| 20260509061902 | 50 | 134 | 0.0 | 0.0 | 0.00 | 0.00 | 0.00 | 89 | 1006.1 |
| 20260509061400 | 50 | 134 | 0.0 | 0.0 | 0.00 | 0.00 | 0.00 | 89 | 1006.2 |
| 20260509060856 | 50 | 133 | 0.0 | 0.0 | 0.00 | 0.00 | 0.00 | 89 | 1006.1 |
| 20260509060353 | 50 | 133 | 0.0 | 0.0 | 0.00 | 0.00 | 0.00 | 90 | 1006.2 |
| 20260509055848 | 50 | 133 | 0.0 | 0.0 | 0.00 | 0.00 | 0.00 | 89 | 1006.1 |
| 20260509055344 | 50 | 133 | 0.0 | 0.0 | 0.00 | 0.00 | 0.00 | 89 | 1006.7 |
| 20260509054841 | 50 | 134 | 0.0 | 0.0 | 0.00 | 0.00 | 0.00 | 90 | 1006.4 |
| 20260509054338 | 50 | 136 | 0.0 | 0.0 | 0.00 | 0.00 | 0.00 | 90 | 1006.3 |
| 20260509053836 | 50 | 133 | 0.0 | 0.0 | 0.00 | 0.00 | 0.00 | 88 | 1006.5 |
| 20260509053333 | 50 | 133 | 0.0 | 0.0 | 0.00 | 0.00 | 0.00 | 88 | 1006.7 |
| 20260509052832 | 50 | 133 | 0.0 | 0.0 | 0.00 | 0.00 | 0.00 | 88 | 1006.5 |
| 20260509052329 | 50 | 133 | 0.0 | 0.0 | 0.00 | 0.00 | 0.00 | 88 | 1006.7 |
| 20260509051826 | 50 | 133 | 0.0 | 0.0 | 0.00 | 0.00 | 0.00 | 88 | 1006.6 |
| 20260509051324 | 50 | 132 | 0.0 | 0.0 | 0.00 | 0.00 | 0.00 | 87 | 1006.6 |
| 20260509050820 | 51 | 132 | 0.0 | 0.0 | 0.00 | 0.00 | 0.00 | 86 | 1006.5 |
| 20260509050317 | 51 | 133 | 0.0 | 0.0 | 0.00 | 0.00 | 0.00 | 85 | 1006.7 |
| 20260509045814 | 51 | 132 | 0.0 | 0.0 | 0.00 | 0.00 | 0.00 | 85 | 1006.7 |
| 20260509045311 | 51 | 132 | 0.0 | 0.0 | 0.00 | 0.00 | 0.00 | 84 | 1006.4 |
| 20260509044808 | 52 | 132 | 0.0 | 0.0 | 0.00 | 0.00 | 0.00 | 84 | 1006.3 |
| 20260509044306 | 52 | 132 | 0.0 | 0.0 | 0.00 | 0.00 | 0.00 | 83 | 1006.5 |
| 20260509043802 | 52 | 132 | 0.0 | 0.0 | 0.00 | 0.00 | 0.00 | 83 | 1006.5 |
| 20260509043258 | 52 | 132 | 0.0 | 0.0 | 0.00 | 0.00 | 0.00 | 84 | 1006.6 |
| 20260509042754 | 53 | 133 | 0.0 | 0.0 | 0.00 | 0.00 | 0.00 | 83 | 1006.4 |
| 20260509042251 | 53 | 133 | 0.0 | 0.0 | 0.00 | 0.00 | 0.00 | 83 | 1006.3 |
| 20260509041748 | 53 | 133 | 0.0 | 0.0 | 0.00 | 0.00 | 0.00 | 83 | 1006.3 |
| 20260509041245 | 53 | 133 | 0.0 | 0.0 | 0.00 | 0.00 | 0.00 | 83 | 1006.6 |
| 20260509040743 | 53 | 133 | 0.0 | 0.0 | 0.00 | 0.00 | 0.00 | 83 | 1006.7 |
| 20260509040240 | 53 | 132 | 0.0 | 0.0 | 0.00 | 0.00 | 0.00 | 82 | 1006.7 |
| 20260509035736 | 53 | 133 | 0.0 | 0.0 | 0.00 | 0.00 | 0.00 | 82 | 1006.8 |
| 20260509035233 | 54 | 135 | 0.0 | 0.0 | 0.00 | 0.00 | 0.00 | 82 | 1006.7 |
| 20260509034730 | 54 | 135 | 0.0 | 0.0 | 0.00 | 0.00 | 0.00 | 82 | 1006.8 |
| 20260509034228 | 54 | 134 | 0.0 | 0.0 | 0.00 | 0.00 | 0.00 | 82 | 1006.9 |
| 20260509033725 | 54 | 131 | 0.0 | 0.0 | 0.00 | 0.00 | 0.00 | 82 | 1007.0 |
| 20260509033222 | 54 | 130 | 0.0 | 0.0 | 0.00 | 0.00 | 0.00 | 81 | 1006.9 |
| 20260509032719 | 54 | 130 | 0.0 | 0.0 | 0.00 | 0.00 | 0.00 | 81 | 1006.9 |
| 20260509032216 | 54 | 129 | 0.0 | 0.0 | 0.00 | 0.00 | 0.00 | 81 | 1007.1 |
| 20260509031713 | 54 | 135 | 0.0 | 0.0 | 0.00 | 0.00 | 0.00 | 81 | 1007.1 |
| 20260509031211 | 54 | 132 | 0.0 | 0.0 | 0.00 | 0.00 | 0.00 | 81 | 1007.1 |